Wind_Speed
10 9 5 2 3 4 3 4 2 5 3 2 6 4 6 4 2 2 14 15 24 21 18 16 14 14 13 13 14 13 12 13 18 23 18 16 18 17 13 14 15 16 17 18 18 18 17 15 14
12 8 1 1 4 3 3 3 5 3 4 12 8 5 5 4 4 9 8 22 24 22 19 17 16 14 14 14 14 13 13 14 16 19 17 19 17 14 13 14 16 15 15 16 15 15 13 12 10
9 1 2 2 3 3 3 1 5 8 5 3 5 5 3 3 11 12 12 25 24 22 20 18 18 16 14 15 14 14 15 16 17 17 16 16 13 14 15 16 14 15 14 15 14 14 13 13 12
2 1 1 3 2 2 4 5 5 4 5 6 11 8 4 11 12 10 26 25 24 21 20 18 17 15 14 14 14 13 13 13 12 11 13 14 12 12 12 13 13 13 12 12 12 13 12 10 9
3 2 3 2 4 3 5 7 3 2 3 6 3 5 4 3 10 25 27 25 25 23 19 17 15 14 13 13 15 14 13 13 12 11 11 12 10 9 11 11 11 11 9 10 11 10 9 9 7
3 1 4 4 4 5 4 4 3 3 4 6 8 5 3 14 25 23 25 25 23 22 19 17 15 13 13 13 13 14 14 14 13 11 11 11 9 10 9 10 10 9 9 9 10 10 9 8 6
3 2 2 1 4 3 4 4 3 4 8 4 3 5 5 9 18 21 23 23 22 20 19 16 15 13 13 13 14 13 13 13 12 11 10 9 9 9 9 9 9 10 10 10 10 9 8 8 8
2 2 4 3 2 3 5 3 8 2 4 4 9 6 8 10 20 21 21 22 20 19 18 17 16 15 14 13 14 14 13 12 11 11 9 8 8 8 8 9 10 9 10 11 9 7 6 7 7
1 4 1 1 1 3 4 3 7 4 6 0 2 6 13 24 23 21 20 20 19 18 18 17 19 19 16 15 12 12 12 11 11 10 9 9 8 8 7 8 8 8 9 9 7 5 4 4 4
3 2 4 2 2 4 5 0 5 3 4 4 9 16 25 24 24 20 19 17 17 20 20 20 20 19 18 16 14 14 13 12 12 12 11 10 9 9 7 7 7 7 8 8 5 4 1 3 3
2 0 2 6 3 1 3 3 2 9 3 4 16 15 18 19 18 19 18 18 18 20 22 22 21 20 18 18 16 15 14 14 13 13 12 11 10 9 9 8 7 8 7 6 4 2 3 6 7
2 3 3 2 4 1 2 3 0 8 4 8 15 18 16 14 14 17 17 20 21 23 24 23 22 22 19 18 18 18 16 15 14 13 11 11 10 10 8 7 7 7 6 3 1 2 5 6 8
1 6 3 4 5 4 6 3 4 13 8 11 14 16 15 13 14 14 19 21 23 25 25 25 24 24 22 20 19 18 17 15 14 14 12 11 9 9 8 8 7 5 3 0 2 5 8 9 12
7 10 6 1 5 5 9 5 9 6 13 13 15 14 13 13 17 13 15 19 23 27 27 26 25 24 23 21 21 19 17 16 16 15 13 10 9 9 9 8 6 3 1 4 6 7 8 10 11
11 6 6 6 4 5 10 3 4 13 16 15 13 13 11 12 16 20 24 24 26 28 28 27 26 24 23 21 21 19 18 17 17 17 14 13 11 11 10 9 6 2 3 5 5 5 8 9 9
2 3 3 3 3 5 3 6 5 16 18 16 14 13 13 11 19 21 25 28 27 26 28 26 25 25 23 22 21 19 17 18 19 18 17 14 13 12 10 10 7 4 4 4 4 8 9 11 9
1 3 3 5 9 3 8 5 3 14 15 15 14 13 13 10 13 20 27 30 30 30 28 28 26 25 24 22 21 19 15 15 17 18 18 15 14 14 11 10 7 7 5 3 7 8 12 7 7
2 2 1 6 8 14 8 12 5 13 16 16 15 13 13 12 14 23 27 31 31 32 31 30 29 26 24 22 21 19 16 15 17 18 18 17 15 13 11 9 9 7 5 5 8 10 6 7 9
2 3 4 5 5 7 15 11 12 14 12 14 15 14 14 14 17 24 29 31 32 32 32 31 30 27 25 24 21 20 19 17 16 18 19 18 16 14 11 10 7 7 7 6 6 7 6 7 10
3 2 4 5 2 8 7 14 9 17 22 20 18 16 15 10 9 18 24 26 31 36 36 34 33 30 27 26 24 21 21 18 17 16 17 18 18 16 14 11 8 9 8 8 9 8 6 6 8
3 1 3 4 7 3 1 5 8 13 13 14 14 15 14 15 14 13 21 27 29 31 36 38 36 34 31 29 24 19 18 19 20 19 19 20 19 18 16 12 10 10 11 11 10 8 6 5 5
2 5 3 5 4 2 3 4 4 7 18 15 18 17 16 15 14 15 21 24 28 34 39 40 38 37 34 33 28 26 20 19 22 22 21 21 22 22 18 15 12 12 12 12 10 7 8 6 5
6 4 5 3 4 1 2 2 6 6 11 18 19 21 21 19 18 19 23 31 34 32 35 41 40 39 37 35 32 28 22 23 19 22 21 22 23 24 21 18 15 14 14 13 10 9 7 6 5
5 1 5 4 3 1 6 6 5 6 13 17 18 22 24 22 21 19 31 33 33 31 32 35 40 40 40 38 36 32 28 23 22 20 23 22 23 25 24 21 18 16 16 15 11 10 10 8 9
11 6 3 3 0 5 2 0 7 6 5 9 16 22 24 22 18 19 20 26 30 31 32 33 38 39 41 40 40 36 32 28 25 25 25 26 25 27 28 26 22 19 17 16 14 13 12 11 11
5 4 4 3 3 5 5 6 5 7 8 9 10 16 19 20 20 22 22 31 34 36 35 35 35 37 41 41 41 39 35 32 28 26 24 28 29 26 28 29 25 23 20 18 16 16 16 15 15
5 3 2 2 2 2 4 8 8 7 10 9 9 7 14 20 22 25 25 35 36 37 38 39 37 38 39 44 41 40 38 35 31 29 26 24 27 27 26 27 25 25 22 20 20 20 20 19 18
3 3 3 3 2 4 5 5 5 10 13 20 22 13 12 17 21 21 22 32 37 38 39 39 40 40 44 43 42 41 40 37 33 30 27 27 27 27 28 25 25 25 26 25 23 22 19 18 18
5 4 3 3 4 4 3 6 5 5 9 20 21 18 16 13 20 20 21 31 37 36 37 38 36 37 35 40 43 41 41 38 36 32 28 29 27 28 28 28 26 25 26 26 26 26 24 20 20
4 4 4 4 6 2 2 6 10 8 15 17 23 22 17 9 14 16 16 22 26 32 31 35 36 34 38 42 41 43 42 41 39 36 31 29 28 27 26 26 27 27 26 25 26 29 28 24 23
Wind_Direction
142 138 136 98 63 66 351 1 85 95 78 357 125 119 121 34 67 184 147 146 157 155 153 150 148 140 138 131 127 120 118 117 111 123 128 120 118 117 114 104 100 100 102 100 98 97 98 99 97
151 138 116 40 74 57 306 328 81 49 112 98 73 80 53 73 81 122 115 151 156 153 152 150 148 146 146 144 140 130 126 122 122 123 122 118 118 117 112 104 101 102 101 101 98 96 98 98 93
148 118 69 89 107 134 168 39 105 126 133 102 110 63 72 92 116 141 150 152 151 149 150 147 145 145 147 152 148 146 135 122 125 125 124 112 118 121 117 109 107 103 102 102 99 93 91 86 77
161 13 13 64 70 57 125 131 112 125 84 68 115 82 84 123 140 165 152 154 150 148 150 146 142 145 146 151 156 156 143 140 136 130 128 131 130 118 111 108 105 100 104 105 104 91 82 81 72
339 360 50 52 45 69 98 141 124 55 74 98 112 109 77 38 147 148 155 156 155 151 150 149 149 147 152 152 159 160 150 147 142 137 129 129 129 123 112 108 105 107 111 108 103 92 77 72 72
336 50 43 39 54 47 71 103 73 56 73 108 92 82 58 131 134 149 156 158 158 154 152 154 152 156 156 157 157 161 157 147 148 146 143 141 133 118 108 106 104 106 114 123 114 95 79 66 67
86 49 84 60 86 57 121 101 63 119 109 64 90 94 112 130 138 149 158 160 158 156 155 156 159 154 159 161 159 161 158 153 154 148 147 140 129 119 111 114 108 104 112 119 119 109 80 68 60
71 84 43 40 25 89 131 88 110 94 43 89 147 151 155 157 148 155 162 164 163 161 161 161 156 162 160 161 162 163 162 154 155 151 155 150 136 126 125 118 114 112 116 122 120 105 81 53 44
17 55 39 321 11 99 117 123 180 88 131 279 84 111 130 141 148 149 156 165 168 168 165 166 164 166 165 165 166 162 162 160 165 154 157 154 153 149 145 125 119 116 115 120 124 105 91 46 22
84 123 184 64 55 44 340 191 144 106 164 59 84 103 129 141 146 149 162 168 174 175 172 171 169 170 169 170 168 168 165 165 165 167 172 173 169 163 152 139 127 120 120 127 128 120 75 350 340
23 270 78 32 191 46 10 84 105 146 239 202 152 144 145 150 155 158 170 175 176 180 176 177 175 175 174 174 174 175 176 178 179 182 181 175 172 170 166 151 141 135 127 123 117 57 320 311 306
182 130 63 47 47 15 55 5 161 172 233 149 152 151 149 158 166 169 172 176 180 184 184 182 182 181 180 180 183 184 186 186 188 190 183 172 171 173 170 160 148 142 132 129 72 346 341 1 11
175 103 70 88 67 17 346 219 215 215 103 130 145 154 165 169 172 181 179 182 185 187 189 190 189 187 185 188 191 191 192 196 195 195 189 186 182 179 178 172 161 152 159 285 337 352 6 5 1
107 96 119 73 277 345 340 296 187 178 141 147 158 174 173 175 177 168 180 184 193 193 193 193 195 191 189 192 195 198 197 199 203 198 197 202 192 194 189 181 176 182 292 341 353 6 3 358 2
137 101 87 26 13 340 333 296 172 147 152 158 179 177 189 188 175 185 189 191 196 195 194 197 195 195 195 194 197 199 200 203 207 210 213 210 201 196 196 194 203 233 316 343 356 352 341 344 343
48 140 51 270 130 271 253 276 188 157 158 170 184 189 194 186 195 197 194 196 198 194 196 196 200 199 199 198 197 199 209 213 214 221 215 210 203 199 203 208 224 258 282 337 343 335 337 336 333
51 99 77 309 206 289 228 284 186 166 167 178 188 194 197 199 198 202 202 200 199 199 199 199 200 204 205 206 206 203 209 211 210 212 212 212 206 198 204 225 251 269 286 302 315 325 329 336 342
328 73 121 225 202 218 245 253 195 183 179 184 191 198 205 195 205 203 200 205 204 205 204 204 203 206 209 210 212 214 209 214 215 216 216 211 208 207 222 237 263 259 258 280 305 313 328 336 337
222 208 207 254 217 179 222 231 185 192 199 196 194 199 205 208 202 200 205 203 202 208 208 208 208 208 206 206 207 207 209 207 214 216 218 215 210 215 225 240 252 240 252 282 290 318 345 348 346
358 0 317 297 190 197 250 232 181 191 204 204 196 199 203 202 185 188 191 192 193 203 210 213 210 207 206 202 200 201 202 207 209 214 216 215 218 222 223 230 244 245 261 267 282 305 323 337 354
352 201 267 278 317 314 172 287 184 211 208 210 217 217 210 202 195 189 185 189 192 194 204 209 209 205 204 202 198 198 207 212 215 215 214 215 218 219 225 236 248 255 268 271 283 286 305 333 326
346 198 243 308 40 282 60 284 243 197 210 210 215 213 215 209 201 193 189 190 191 198 203 207 207 206 206 203 203 204 207 209 216 220 219 219 223 221 226 238 247 255 255 268 282 275 285 292 301
243 299 259 243 205 115 287 121 273 130 212 224 218 214 213 210 202 195 192 194 199 197 198 204 207 208 208 205 208 208 212 213 221 223 226 226 225 223 225 233 245 244 258 268 259 265 279 268 286
277 334 27 58 104 250 228 172 267 179 216 223 225 222 216 207 204 201 197 193 198 197 199 200 204 210 211 210 209 208 210 216 220 222 225 227 228 227 231 235 243 247 254 249 253 271 261 265 266
26 43 357 344 258 224 211 172 231 243 245 234 221 221 221 211 203 198 195 192 196 194 197 200 204 206 210 210 209 210 213 218 224 225 229 227 227 231 232 236 243 241 247 240 249 258 257 261 265
303 124 139 263 234 268 279 248 251 227 250 242 240 233 219 211 204 198 196 194 194 195 196 197 203 205 209 210 213 213 216 218 222 226 228 229 228 232 234 236 241 238 241 244 254 263 266 265 268
314 36 282 168 340 64 247 290 304 290 315 327 291 234 217 210 205 201 197 194 194 196 197 197 200 205 209 212 214 215 215 217 220 226 230 233 230 235 236 238 243 241 241 244 254 260 263 264 270
117 247 5 10 278 285 295 281 243 327 333 334 326 311 249 221 209 203 199 196 194 195 196 198 202 203 210 214 215 216 216 217 221 224 228 233 237 241 241 243 244 245 244 248 253 256 264 263 266
350 21 21 124 134 198 303 270 231 340 327 324 317 310 295 231 212 201 200 197 196 192 194 197 199 202 203 211 215 216 219 218 218 222 230 234 237 246 246 251 247 248 251 255 253 255 259 259 263
187 105 102 104 297 255 207 260 283 320 338 340 325 316 312 264 209 202 193 186 188 194 197 197 199 201 202 209 211 215 219 220 221 223 227 230 234 239 247 256 248 250 254 260 256 257 257 260 265
Height
771 773 774 774 793 795 802 791 776 785 786 779 779 787 797 800 804 821 804 806 809 813 817 819 821 821 822 823 823 823 824 825 825 827 829 831 831 832 833 834 835 836 837 838 839 839 839 840 840
771 773 775 775 800 808 807 782 785 784 782 779 783 788 796 806 800 803 806 808 811 815 818 821 822 823 824 825 826 827 827 828 829 830 832 834 834 836 837 837 838 839 840 841 841 841 842 842 842
772 773 779 786 797 804 804 785 786 782 778 781 790 788 795 805 803 806 807 810 813 817 820 823 824 825 826 827 829 830 831 832 833 834 834 836 838 839 839 840 841 842 842 842 843 843 844 844 844
773 775 778 792 793 785 785 785 781 783 781 780 787 800 797 800 804 806 809 812 815 819 822 824 826 827 828 829 831 832 834 834 835 836 839 840 841 843 842 842 844 844 844 844 845 845 846 847 848
774 777 791 788 789 782 780 779 779 786 786 787 786 803 804 805 804 807 811 814 817 820 823 826 828 829 830 831 833 834 836 837 837 838 840 841 842 844 845 845 846 846 846 847 847 848 849 849 850
779 781 801 809 795 787 784 780 782 787 788 790 794 801 809 807 807 811 813 817 820 822 825 828 829 831 833 834 835 836 837 839 840 841 842 843 844 845 847 848 848 848 848 849 849 850 851 851 851
784 791 805 802 798 794 789 781 790 792 792 795 791 808 809 811 812 814 817 820 823 825 827 829 831 833 834 836 837 838 840 842 843 844 845 845 846 848 849 850 850 851 851 852 852 853 854 854 854
782 789 805 802 803 800 786 783 786 792 796 789 791 810 812 810 812 816 820 823 826 827 828 830 832 835 836 838 839 840 842 843 845 846 847 848 849 851 852 852 853 854 855 855 856 856 856 856 856
777 800 812 803 801 800 784 789 785 785 793 790 792 797 801 809 813 818 822 826 827 829 830 832 834 835 837 839 841 843 844 845 846 848 849 850 851 852 854 855 856 857 857 858 858 858 858 858 859
785 802 801 791 793 798 791 788 790 795 797 800 800 801 805 809 813 818 822 824 828 829 830 832 834 836 838 840 842 844 846 847 848 849 850 851 853 854 856 857 858 859 860 860 860 860 861 861 861
788 798 788 791 788 789 791 789 785 797 804 798 801 804 806 811 814 817 821 824 826 829 830 832 834 837 840 841 843 845 846 848 849 850 851 853 854 855 857 858 859 860 862 863 863 863 863 862 862
792 787 787 790 788 789 792 789 792 794 792 790 796 800 806 810 814 815 820 822 825 828 831 833 835 837 840 842 843 845 847 848 850 851 852 854 855 856 858 859 861 862 864 865 865 865 864 863 862
788 789 787 785 785 786 786 790 791 791 788 792 799 802 805 809 812 815 818 821 824 827 830 832 835 837 839 842 844 845 847 848 850 852 854 855 856 857 858 860 862 863 865 866 866 866 864 863 862
780 788 788 787 784 787 788 785 784 786 789 796 800 804 804 808 810 815 819 821 822 826 829 832 835 837 839 841 844 846 847 849 850 852 854 856 857 858 860 861 863 864 865 866 865 865 864 864 863
780 793 791 792 792 791 784 792 789 785 788 798 803 803 806 808 811 812 814 818 820 823 827 830 833 837 839 840 843 845 848 849 850 852 854 856 857 859 860 862 864 865 866 865 865 865 865 864 863
789 792 811 793 793 791 794 805 784 784 789 798 802 803 804 807 808 811 813 816 820 824 826 829 833 835 838 840 842 845 847 849 850 852 854 856 858 859 861 862 864 865 866 865 866 865 864 864 863
796 815 814 805 795 793 796 801 785 782 788 797 800 801 802 804 808 810 811 814 817 820 824 827 830 833 836 839 842 844 846 848 850 852 854 856 858 860 861 863 864 865 865 866 866 865 865 864 863
814 813 805 806 796 798 797 796 790 785 786 793 796 798 800 801 802 805 808 811 815 818 821 825 828 831 835 838 841 843 845 847 849 851 853 855 858 860 862 863 864 865 865 866 866 866 865 864 863
798 805 811 797 782 796 796 788 789 787 790 792 793 795 796 796 796 801 804 808 812 817 820 823 826 829 833 836 839 841 843 846 848 850 852 854 857 859 861 863 864 864 865 866 866 866 865 864 863
794 802 808 796 782 792 787 789 783 782 780 781 784 787 789 793 793 796 801 805 807 811 815 820 823 826 830 833 836 839 841 844 847 849 851 853 856 858 861 862 863 864 865 866 866 866 865 865 864
804 805 805 806 793 782 781 794 788 780 778 781 781 780 782 785 788 791 796 799 803 807 811 815 819 823 826 830 834 837 840 843 845 847 849 852 855 857 860 862 863 863 864 865 866 866 866 866 865
811 791 793 800 808 824 786 829 795 785 782 779 776 777 777 779 781 785 789 794 798 801 806 811 816 820 823 828 831 833 836 840 842 845 847 850 852 855 858 860 861 862 863 864 865 865 866 866 866
807 790 794 794 806 808 802 819 799 784 791 779 769 767 767 768 772 776 780 784 789 796 801 806 812 817 820 824 828 831 834 837 840 842 845 848 850 853 855 858 860 861 862 863 864 865 865 866 866
791 793 803 809 818 832 808 810 805 796 773 766 760 757 755 756 760 766 770 776 782 790 797 802 806 811 816 820 824 827 830 834 836 839 842 845 848 851 853 856 858 860 861 862 863 863 864 865 865
807 823 846 836 831 835 806 812 797 764 759 756 752 749 745 747 755 758 765 771 777 784 790 796 801 805 810 815 819 822 826 830 833 836 838 841 844 848 850 853 855 857 858 860 860 861 861 862 863
816 823 850 843 850 832 812 812 786 754 745 742 739 735 735 740 742 747 752 759 765 772 781 788 794 800 804 808 813 817 822 825 828 832 834 837 840 843 847 849 852 854 856 858 859 860 860 861 861
815 830 818 832 837 845 824 794 770 751 748 740 736 733 730 729 731 734 741 747 755 763 770 779 786 792 797 801 806 811 816 820 823 827 831 833 836 839 842 846 849 851 853 855 857 857 857 858 858
813 812 834 847 843 842 831 810 801 769 763 751 741 735 727 721 721 726 731 739 746 754 762 770 777 782 787 794 800 804 809 814 819 823 826 829 833 836 838 841 844 847 849 851 853 854 854 855 855
831 829 833 840 849 850 856 825 781 771 771 761 747 735 725 715 713 716 722 731 738 746 755 762 770 776 783 788 793 798 803 808 813 817 821 825 828 831 834 836 839 842 844 846 848 849 850 851 851
820 824 840 853 849 848 846 824 766 770 764 760 750 739 728 711 708 714 720 729 737 743 752 756 763 770 774 779 786 791 797 802 807 811 815 819 822 826 828 831 833 836 838 840 843 844 845 847 848